Regional Weather Roundup
Issued by NWS

Home | Current Version | Previous Version | Graphics & Text | Print | Product List | Glossary On
Versions: 1 2 3 4 5 6 7 8 9 10 11 12 13 14 15 16 17 18 19 20 21 22 23 24 25 26 27 28 29 30 31 32 33 34 35 36 37 38 39 40 41 42 43 44 45 46 47 48 49 50
000
ASUS44 KMEG 301000
RWRTN
TENNESSEE HOURLY STATE WEATHER ROUNDUP
NATIONAL WEATHER SERVICE MEMPHIS TN
500 AM CDT THU OCT 30 2014

TNZ002-004-019-021-049-052-054-088>092-301100-
WEST TENNESSEE

CITY           SKY/WX    TMP DP  RH WIND       PRES   REMARKS
MEMPHIS INTL   CLEAR     48  40  73 E3        30.14S
NWS MEMPHIS      N/A     42 N/A N/A MISG        N/A
JACKSON        CLEAR     38  36  92 CALM      30.15S
DYERSBURG      CLEAR     41  28  60 CALM      30.17S
UNION CITY     CLEAR     36  36 100 CALM      30.15S
PARIS          CLEAR     34  34 100 CALM      30.15S
SAVANNAH       CLEAR     34  34 100 CALM      30.14S
$$

TNZ008-025-027-028-033-062-065-066-301100-
NORTH MIDDLE TENNESSEE

CITY           SKY/WX    TMP DP  RH WIND       PRES   REMARKS
NASHVILLE      CLEAR     42  39  89 CALM      30.15R
CLARKSVILLE    CLEAR     37  36  96 CALM      30.15S
COOKEVILLE       N/A     34  34 100 CALM      30.12R VSB 1/2
CROSSVILLE     CLEAR     38  34  85 CALM      30.11R
$$

TNZ061-075-076-078-094-096-097-301100-
SOUTH MIDDLE TENNESSEE

CITY           SKY/WX    TMP DP  RH WIND       PRES   REMARKS
FAYETTEVILLE   CLEAR     43  36  75 N21G59    30.11R
TULLAHOMA      CLEAR     34  32  93 CALM      30.12R
WINCHESTER     CLEAR     36  36 100 CALM      30.12S
MCMINNVILLE    CLEAR     36  36 100 CALM      30.12R
SHELBYVILLE    CLEAR     36  36 100 CALM      30.14R
$$

TNZ017-018-042-046-047-301100-
NORTHEAST TENNESSEE

CITY           SKY/WX    TMP DP  RH WIND       PRES   REMARKS
TRI CITIES     FOG       40  40 100 CALM      30.09R VSB 1/16
ELIZABETHTON   FOG       30  30 100 CALM      30.09R VSB 1/2
$$

TNZ012-013-036-069-073-074-301100-
CENTRAL EAST TENNESSEE

CITY           SKY/WX    TMP DP  RH WIND       PRES   REMARKS
KNOXVILLE      CLEAR     41  39  93 CALM      30.10R
OAK RIDGE      FOG       41  41 100 CALM      30.12R VSB 1/4
GATLINBURG     SUNNY     36  36 100 CALM      30.10R
MORRISTOWN     SUNNY     37  37 100 CALM      30.10R
$$

TNZ083-085-099-301100-
SOUTHEAST TENNESSEE

CITY           SKY/WX    TMP DP  RH WIND       PRES   REMARKS
CHATTANOOGA    CLEAR     42  40  92 CALM      30.11R
$$

SKY/WX REPORTED AS FAIR MEANS FEW OR NO CLOUDS BELOW
12 THOUSAND FEET.




USA.gov is the U.S. government's official web portal to all federal, state and local government web resources and services.